Regional Weather Roundup
Issued by NWS

Home | Current Version | Previous Version | Text Only | Print | Product List | Glossary Off
Versions: 1 2 3 4 5 6 7 8 9 10 11 12 13 14 15 16 17 18 19 20 21 22 23 24 25 26 27 28 29 30 31 32 33 34 35 36 37 38 39 40 41 42 43 44 45 46 47 48 49 50

000
ASUS44 KMEG 250010
RWRTN
TENNESSEE HOURLY STATE WEATHER ROUNDUP
NATIONAL WEATHER SERVICE MEMPHIS TN
700 PM CDT SAT JUN 24 2017

TNZ002-004-019-021-049-052-054-088>092-250100-
WEST TENNESSEE

CITY           SKY/WX    TMP DP  RH WIND       PRES   REMARKS
MEMPHIS INTL   PTSUNNY   79  60  52 N12       30.11R
NWS MEMPHIS      N/A     78 N/A N/A MISG        N/A
JACKSON        MOSUNNY   79  60  52 N8        30.10R
SOMERVILLE     SUNNY     77  64  65 CALM      30.10R
COVINGTON      SUNNY     77  59  53 N8        30.10S
UNION CITY     SUNNY     77  55  47 N10G17    30.09R
BOLIVAR        SUNNY     77  61  57 NW5       30.10R
PARIS          SUNNY     75  57  53 VRB5      30.09R
HUNTINGDON     PTSUNNY   77  59  53 VRB5      30.09R
LEXINGTON      SUNNY     75  63  64 NW6       30.09R
SELMER         SUNNY     75  64  69 CALM      30.10R
SAVANNAH       SUNNY     79  61  53 N8        30.08R
$$

TNZ008-025-027-028-033-062-065-066-250100-
NORTH MIDDLE TENNESSEE

CITY           SKY/WX    TMP DP  RH WIND       PRES   REMARKS
NASHVILLE      PTSUNNY   79  58  48 N12       30.08R
PORTLAND       MOSUNNY   75  59  57 N7        30.08R
CLARKSVILLE    MOSUNNY   77  55  46 NW9       30.09R
SMYRNA         CLOUDY    78  61  55 N10       30.09R
COOKEVILLE     SUNNY     75  61  60 NW8       30.07R
GALLATIN       SUNNY     79  57  47 NW6       30.10R
CROSSVILLE     CLOUDY    73  59  61 NW10      30.10R
$$

TNZ061-075-076-078-094-096-097-250100-
SOUTH MIDDLE TENNESSEE

CITY           SKY/WX    TMP DP  RH WIND       PRES   REMARKS
FAYETTEVILLE   SUNNY     77  64  65 NW6       30.07R
TULLAHOMA      SUNNY     75  57  53 N10       30.09R
WINCHESTER     SUNNY     79  64  61 N6          N/A
MCMINNVILLE    SUNNY     75  63  64 NW5       30.08R
COLUMBIA       SUNNY     77  61  57 NW6       30.07R
SHELBYVILLE    SUNNY     75  61  60 NW7       30.08R
$$

TNZ017-018-042-046-047-250100-
NORTHEAST TENNESSEE

CITY           SKY/WX    TMP DP  RH WIND       PRES   REMARKS
TRI CITIES     PTCLDY    80  59  48 NW7       30.02R
ELIZABETHTON   CLEAR     77  68  73 CALM      30.02R
$$

TNZ012-013-036-069-073-074-250100-
CENTRAL EAST TENNESSEE

CITY           SKY/WX    TMP DP  RH WIND       PRES   REMARKS
KNOXVILLE      MOCLDY    81  62  52 NW7       30.02R
OAK RIDGE      CLEAR     81  57  43 VRB3      30.04R
DOWNTOWN KNOXV MOCLDY    81  64  57 CALM      30.02R
GATLINBURG     CLEAR     79  61  53 VRB6      30.02R
MORRISTOWN     CLEAR     77  61  57 N7        30.03R
JACKSBORO      CLEAR     77  61  57 CALM      30.07S
$$

TNZ083-085-099-250100-
SOUTHEAST TENNESSEE

CITY           SKY/WX    TMP DP  RH WIND       PRES   REMARKS
CHATTANOOGA    MOCLDY    82  63  52 N13       30.03R
$$

SKY/WX REPORTED AS FAIR MEANS FEW OR NO CLOUDS BELOW
12 THOUSAND FEET.





USA.gov is the U.S. government's official web portal to all federal, state and local government web resources and services.